Gary, IN

6:49 PM CDT on August 22, 2017 (GMT -0500)
Gary / Chicago

Weather History for KGYY - January, 2014

Change the Weather History Date:

Wednesday, January 1, 2014

  Actual Average Record
Temperature  
Mean Temperature 22 °F -  
Max Temperature 24 °F 29 °F 60 °F (1966)
Min Temperature 19 °F 10 °F -11 °F (1968)
Degree Days  
Heating Degree Days 44    
Moisture  
Dew Point 16 °F    
Average Humidity 79    
Maximum Humidity 84    
Minimum Humidity 74    
Precipitation  
Precipitation 0.01 in - - ()
Sea Level Pressure  
Sea Level Pressure 30.22 in    
Wind  
Wind Speed 10 mph (ENE)    
Max Wind Speed 16 mph    
Max Gust Speed 25 mph    
Visibility 5 miles    
Events Snow    
Averages and records for this station are not official NWS values.
T = Trace of Precipitation, MM = Missing Value Source: NWS Daily Summary

Daily Weather History Graph

Daily Weather History Graph

Search for Another Location

Airport or City:

Trip Planner

Search our weather history database for the weather conditions in past years. The results will help you decide how hot, cold, wet, or windy it might be!

Date:

Astronomy

Jan. 01, 2014 Rise Set
Actual Time 7:16 AM CST 4:30 PM CST
Civil Twilight 6:45 AM CST 5:01 PM CST
Nautical Twilight 6:10 AM CST 5:36 PM CST
Astronomical Twilight 5:36 AM CST 6:10 PM CST
Moon 7:05 AM CST (1/1) 5:15 PM CST (1/1)
Length of Visible Light 10h 16m
Length of Day
9h 13m
New Moon, 0% of the Moon is Illuminated
Jan 1
New Moon
Jan 7
First Quarter
Jan 15
Full
Jan 23
Last Quarter
Jan 30
New

Hourly Weather History & Observations

Time (CST) Temp. Windchill Dew Point Humidity Pressure Visibility Wind Dir Wind Speed Gust Speed Precip Events Conditions
12:15 AM 21.7 °F 12.3 °F 16.9 °F 82% 30.27 in 2.0 mi NNE 8.1 mph - N/A Snow Light Snow
12:35 AM 22.1 °F 12.0 °F 17.6 °F 83% 30.27 in 3.0 mi North 9.2 mph - N/A Snow Light Snow
12:55 AM 22.5 °F 14.1 °F 17.6 °F 82% 30.27 in 2.5 mi NNE 6.9 mph - N/A Snow Light Snow
1:15 AM 23.0 °F 12.4 °F 18.5 °F 83% 30.27 in 3.0 mi NNE 10.4 mph - N/A Snow Light Snow
1:35 AM 23.4 °F 13.5 °F 19.0 °F 84% 30.27 in 7.0 mi NNE 9.2 mph - N/A Snow Light Snow
1:55 AM 23.9 °F 14.2 °F 18.5 °F 80% 30.26 in 10.0 mi NNE 9.2 mph - N/A   Overcast
2:15 AM 24.6 °F 15.8 °F 18.9 °F 79% 30.27 in 10.0 mi NE 8.1 mph - N/A   Overcast
2:35 AM 24.8 °F 14.6 °F 19.2 °F 79% 30.26 in 10.0 mi NE 10.4 mph - N/A   Overcast
2:55 AM 23.2 °F 17.2 °F 18.3 °F 82% 30.27 in 10.0 mi SE 4.6 mph - N/A Snow Light Snow
3:15 AM 21.9 °F 12.5 °F 17.6 °F 83% 30.26 in 10.0 mi ESE 8.1 mph - N/A   Overcast
3:35 AM 21.7 °F 14.3 °F 17.4 °F 83% 30.25 in 10.0 mi ESE 5.8 mph - N/A   Overcast
4:45 AM 21.2 °F 11.7 °F 15.8 °F 80% 30.25 in 10.0 mi East 8.1 mph - N/A   Overcast
5:45 AM 21.2 °F 12.6 °F 14.0 °F 74% 30.26 in 10.0 mi East 6.9 mph - N/A   Overcast
6:45 AM 21.2 °F 12.6 °F 14.0 °F 74% 30.25 in 10.0 mi ESE 6.9 mph - N/A   Overcast
7:45 AM - - - N/A% 30.26 in 10.0 mi ENE 13.8 mph - N/A   Overcast
8:45 AM 21.2 °F 9.5 °F 14.0 °F 74% 30.28 in 3.0 mi East 11.5 mph 25.3 mph N/A Snow Light Snow
10:45 AM 23.0 °F 11.7 °F 15.8 °F 74% 30.26 in 5.0 mi East 11.5 mph - N/A   Overcast
11:45 AM 23.0 °F 11.7 °F 15.8 °F 74% 30.23 in 10.0 mi East 11.5 mph 23.0 mph N/A   Overcast
12:45 PM 21.2 °F 10.9 °F 15.8 °F 80% 30.22 in 10.0 mi ENE 9.2 mph 20.7 mph N/A   Overcast
1:45 PM 23.0 °F 13.1 °F 15.8 °F 74% 30.20 in 7.0 mi East 9.2 mph 20.7 mph N/A   Overcast
2:45 PM 21.2 °F 10.1 °F 15.8 °F 80% 30.20 in 1.5 mi ENE 10.4 mph - N/A Snow Light Snow
3:45 PM 21.2 °F 9.5 °F 15.8 °F 80% 30.20 in 1.5 mi ENE 11.5 mph 17.3 mph N/A Snow Light Snow
4:45 PM 21.2 °F 8.3 °F 15.8 °F 80% 30.20 in 1.5 mi ENE 13.8 mph - N/A Snow Light Snow
5:45 PM 21.2 °F 9.5 °F 15.8 °F 80% 30.20 in 1.5 mi ENE 11.5 mph 23.0 mph N/A Snow Light Snow
6:45 PM 21.2 °F 9.5 °F 15.8 °F 80% 30.20 in 2.0 mi ENE 11.5 mph 23.0 mph N/A Snow Light Snow
7:45 PM 19.4 °F 7.2 °F 14.0 °F 80% 30.19 in 3.0 mi ENE 11.5 mph 23.0 mph N/A Snow Light Snow
8:15 PM 20.3 °F 7.2 °F 15.1 °F 80% 30.19 in 4.0 mi ENE 13.8 mph - N/A Snow Light Snow
8:35 PM 20.1 °F 6.9 °F 14.7 °F 80% 30.19 in 3.0 mi ENE 13.8 mph 17.3 mph N/A Snow Light Snow
8:55 PM 20.1 °F 7.5 °F 14.9 °F 80% 30.19 in 4.0 mi ENE 12.7 mph 17.3 mph N/A Snow Light Snow
9:15 PM 20.1 °F 7.5 °F 14.5 °F 79% 30.19 in 4.0 mi NE 12.7 mph 19.6 mph 0.01 in Snow Light Snow
9:35 PM 19.9 °F 5.7 °F 14.5 °F 80% 30.18 in 4.0 mi ENE 16.1 mph 20.7 mph 0.01 in Snow Light Snow
9:45 PM 19.4 °F 7.2 °F 14.0 °F 80% 30.18 in 4.0 mi NE 11.5 mph 23.0 mph N/A Snow Light Snow
9:55 PM 19.9 °F 7.3 °F 14.0 °F 78% 30.18 in 3.0 mi NE 12.7 mph - 0.01 in Snow Light Snow
10:15 PM 19.9 °F 5.7 °F 14.4 °F 79% 30.17 in 2.5 mi ENE 16.1 mph 21.9 mph N/A Snow Light Snow
10:35 PM 19.6 °F 6.2 °F 14.0 °F 79% 30.17 in 3.0 mi ENE 13.8 mph - N/A Snow Light Snow
10:55 PM 19.4 °F 6.6 °F 14.0 °F 80% 30.17 in 2.5 mi ENE 12.7 mph 19.6 mph N/A Snow Light Snow
11:15 PM 19.4 °F 6.0 °F 14.0 °F 80% 30.17 in 3.0 mi ENE 13.8 mph 19.6 mph N/A Snow Light Snow
11:35 PM 19.2 °F 4.7 °F 14.0 °F 80% 30.16 in 3.0 mi ENE 16.1 mph 20.7 mph N/A Snow Light Snow
11:55 PM 19.4 °F 6.0 °F 14.0 °F 80% 30.15 in 3.0 mi ENE 13.8 mph 18.4 mph N/A Snow Light Snow